Regional Weather Roundup
Issued by NWS San Angelo, TX

Home | Current Version | Previous Version | Text Only | Print | Product List | Glossary On
Versions: 1 2 3 4 5 6 7 8 9 10 11 12 13 14 15 16 17 18 19 20 21 22 23 24 25 26 27 28 29 30 31 32 33 34 35 36 37 38 39 40 41 42 43 44 45 46 47 48 49 50
000
ASUS44 KSJT 231010
RWRSJT
WEST CENTRAL TEXAS REGIONAL WEATHER ROUNDUP
NATIONAL WEATHER SERVICE SAN ANGELO TX
500 AM CDT FRI JUN 23 2017

NOTE: "FAIR" INDICATES FEW OR NO CLOUDS BELOW 12,000 FEET WITH NO
SIGNIFICANT WEATHER AND/OR OBSTRUCTIONS TO VISIBILITY.

TXZ049-054-064>066-071>073-076>078-098-099-113-114-127-128-139-140-
154-155-168>170-231100
...LOCATIONS ACROSS WEST CENTRAL TEXAS...

CITY           SKY/WX    TMP DP  RH WIND       PRES   REMARKS
SAN ANGELO     CLEAR     76  56  49 S6        29.72F
ABILENE        CLEAR     76  63  64 SE13      29.72S
DYESS AFB      CLEAR     76  60  57 SE9       29.71S
JUNCTION       CLEAR     77  64  64 CALM      29.76R
SWEETWATER     CLEAR     77  53  42 S9        29.77R
BROWNWOOD      PTCLDY    68  64  88 CALM      29.74S
COLEMAN        SUNNY     72  59  64 S5        29.74F
SONORA         CLEAR     79  59  50 S5        29.81S
OZONA          FAIR      70  54  56 S7        29.79F
BRADY          NOT AVBL
$$

TEXAS PANHANDLE/OKLAHOMA PANHANDLE

CITY           SKY/WX    TMP DP  RH WIND       PRES   REMARKS
AMARILLO       PTCLDY    74  59  59 E17       29.88S
BORGER         PTCLDY    74  62  66 NE12      29.88R
CANADIAN       CLOUDY    75  64  67 NW13G26   29.87R
DALHART        CLEAR     69  60  73 N9        29.94R
DUMAS          SUNNY     66  59  77 NE8       29.91F
GUYMON         NOT AVBL
HEREFORD       CLOUDY    71  58  63 NE7       29.89R
PAMPA          CLOUDY    71  63  74 NE12      29.89R
PERRYTON       CLOUDY    70  64  80 SE17G30   29.82F
$$

SOUTHERN PANHANDLE/SOUTH PLAINS/ROLLING PLAINS

CITY           SKY/WX    TMP DP  RH WIND       PRES   REMARKS
LUBBOCK        CLOUDY    80  56  43 NE16      29.85R
SNYDER         CLOUDY    76  55  48 S5        29.77R
CHILDRESS      CLOUDY    75  63  66 NE7       29.81R
SEMINOLE       MOSUNNY   80  51  36 CALM      29.83R
$$

PERMIAN BASIN

CITY           SKY/WX    TMP DP  RH WIND       PRES   REMARKS
MIDLAND        CLOUDY    85  55  35 S9        29.77R
ODESSA         MOCLDY    84  55  36 SW9       29.77R
WINK           CLOUDY    84  56  38 SE12      29.74R
$$

FAR WEST/SOUTHWEST MOUNTAINS/TRANS PECOS

CITY           SKY/WX    TMP DP  RH WIND       PRES   REMARKS
ALPINE         CLOUDY    76  50  40 SW6       29.95S
DRYDEN           N/A     79  57  46 N9        29.74S
EL PASO        MOCLDY    89  40  17 SW5       29.80S
FORT STOCKTON  CLOUDY    83  56  39 S14       29.76F
GUADALUPE PASS CLEAR     83  44  25 CALM        N/A
MARFA          PTCLDY    73  50  44 W6        29.97R
PECOS          CLOUDY    83  56  39 NE7       29.72S
$$

DALLAS/FORT WORTH METROPLEX

CITY           SKY/WX    TMP DP  RH WIND       PRES   REMARKS
DFW AIRPORT    PTCLDY    78  74  87 S7        29.71S
FTW MEACHAM    PTCLDY    79  74  84 SE7       29.71F
DAL-EXECUTIVE  CLEAR     78  75  90 S5        29.73R
GRAND PRAIRIE  CLEAR     77  71  81 CALM      29.74S
ADDISON        CLOUDY    76  72  86 SE5       29.74S
MESQUITE       CLOUDY    73  72  96 CALM      29.74R
LANCASTER      MOSUNNY   73  71  95 CALM      29.75R
$$

NORTH CENTRAL TEXAS

CITY           SKY/WX    TMP DP  RH WIND       PRES   REMARKS
SHRMAN/DENISON CLOUDY    76  72  86 S8        29.74S
GAINESVILLE    CLEAR     72  70  95 CALM      29.75R
BRIDGEPORT     SUNNY     71  71 100 CALM      29.74S
DENTON         PTCLDY    74  73  97 SE5       29.72S
WAXAHACHIE     MOSUNNY   75  75 100 S5        29.75R
GRANBURY       SUNNY     77  72  85 E6        29.72F
$$

WESTERN NORTH TEXAS

CITY           SKY/WX    TMP DP  RH WIND       PRES   REMARKS
WICHITA FALLS  CLEAR     72  68  87 SE3       29.71S
VERNON         MOSUNNY   77  66  69 CALM      29.76R
BRECKENRIDGE   SUNNY     77  69  77 CALM      29.71R
COMANCHE       CLEAR     70  70 100 SE6       29.73F
$$

CENTRAL AND SOUTH CENTRAL TEXAS

CITY           SKY/WX    TMP DP  RH WIND       PRES   REMARKS
AUSTIN/BERGSTM PTCLDY    78  75  90 S6        29.74S
WACO           CLEAR     77  75  93 S12       29.73R
HILLSBORO      MOSUNNY   76  75  95 SE7       29.73S
TEMPLE         PTCLDY    77  74  90 S13       29.74S
KILLEEN-GRAY   CLEAR     75  73  93 SE8       29.73S
FORT HOOD      PTCLDY   N/A N/A N/A SE7       29.71S
GEORGETOWN     PTCLDY    79  72  78 S6        29.75S
LAGO VISTA     FAIR      77  73  88 S6        29.78S
SAN MARCOS     CLEAR     73  73 100 S7        29.76F
NEW BRAUNFELS  CLEAR     75  72  90 SE5       29.74R
RANDOLPH AFB   CLEAR     73  73  99 SE8       29.74F
SAN ANTONIO    CLEAR     78  72  81 SE7       29.75S
STINSON        CLEAR     79  73  82 E7        29.73R
PLEASANTON     NOT AVBL
LA GRANGE      CLOUDY    81  79  94 S7        29.74R
GIDDINGS       PTSUNNY   78  75  90 S7        29.77R
$$

EAST TEXAS

CITY           SKY/WX    TMP DP  RH WIND       PRES   REMARKS
PARIS            N/A     75  73  93 SW6       29.73S
CLARKSVILLE    NOT AVBL
TYLER          PTCLDY    77  77 100 S9        29.75R
LONGVIEW       CLOUDY    77  77 100 S9        29.74R
PALESTINE      MOSUNNY   76  76  99 SE5       29.77R
NACOGDOCHES    CLOUDY    79  75  89 MISG      29.75R
$$

TEXAS HILL COUNTRY AND EDWARDS PLATEAU

CITY           SKY/WX    TMP DP  RH WIND       PRES   REMARKS
LLANO          SUNNY     75  68  78 CALM      29.77S
HORSESHOE BAY  FAIR      78  72  82 MISG      29.75F
KERRVILLE      PTCLDY    76  73  88 SE6       29.79R
FREDERICKSBRG  CLEAR     76  70  80 CALM      29.78S
ROCKSPRINGS    SUNNY     79  72  78 S9        29.82R
HONDO          CLEAR     77  73  87 E6        29.74R
UVALDE         SUNNY     75  72  88 NE8       29.73S
DEL RIO        CLEAR     80  67  64 E6        29.68R
$$

SOUTHEAST TEXAS

CITY           SKY/WX    TMP DP  RH WIND       PRES   REMARKS
COLLEGE STN    CLOUDY    77  77 100 S8        29.75S
CALDWELL       NOT AVBL
CROCKETT       CLOUDY    75  75 100 S3        29.79R FOG
BRENHAM        CLOUDY    81  78  92 S7        29.77S
HUNTSVILLE     PTCLDY    79  75  87 S9        29.76S
CONROE         CLOUDY    78  76  93 S7        29.77S
HOUSTON BUSH   MOCLDY    80  77  90 S8        29.77R
HOUSTON HOBBY  MOCLDY    81  77  88 S8        29.77R
PERLAND        CLEAR     82  76  81 S10       29.79R
WHARTON        SUNNY     78  75  91 SE7       29.77S
$$

THE UPPER TEXAS COAST

CITY           SKY/WX    TMP DP  RH WIND       PRES   REMARKS
ORANGE         CLOUDY    81  78  90 S8        29.82R
PORT ARTHUR      N/A     80  76  87 MISG      29.79R
GALVESTON      CLEAR     82  78  88 S16G23    29.79S
ANGLETON       MOCLDY    82  77  84 S12       29.77S
BAY CITY       MOSUNNY   81  77  89 S7        29.77S
$$

TEXAS COASTAL BEND, RIO GRANDE PLAINS DEEP SOUTH TEXAS

CITY           SKY/WX    TMP DP  RH WIND       PRES   REMARKS
VICTORIA       LGT RAIN  81  77  88 S12       29.75R
BEEVILLE       PTSUNNY  N/A N/A N/A SE9       29.73S
ROCKPORT       PTCLDY    83  75  77 S10G24    29.73S
PORT ARANSAS   PTSUNNY   83  76  79 S18G24    29.73S
PORT LAVACA    SUNNY     80  78  94 S9        29.75R
CORPUS CHRISTI PTCLDY    83  77  82 S10       29.72S
KINGSVILLE NAS CLEAR     80  79  96 SE9       29.72R
COTULLA        CLEAR     81  67  62 SE10      29.69R
LAREDO         CLEAR     84  67  56 SE14      29.68R
BROWNSVILLE    CLEAR     81  77  88 S13       29.72S
PORT ISABEL    CLEAR     82  77  84 S15       29.71S
HEBBRONVILLE   SUNNY     77  73  87 SE8       29.72R
MCALLEN        PTCLDY    83  76  79 SE17G24   29.70S
WESLACO        CLOUDY    82  75  81 S12G17    29.70S
FALFURRIAS     MOSUNNY   81  76  86 SE9       29.71R
EDINBURG       CLOUDY    84  75  75 S16G22    29.71R
$$




USA.gov is the U.S. government's official web portal to all federal, state and local government web resources and services.